When you browse on this site, cookies collect data to enhance your experience and personalize the content and advertising you see.
Visit our Privacy Policy to learn more. By continuing to use the site, you agree to this use of cookies and data.
  • în România
  • Lista ţărilor
  • Pe 7 zile
  • Temperatura apei
  • Hartă satelitară
  • Meteo pe hartă
  • Widget-uri
  • user-avatar
    Intrare

    Meteo pe oră la Kitzbuhel

    Astăzi, 20 Mai, Luni

    Timp Temperatura Precipitaţii Vânt Presiune Umiditate
    00:00 +9°C° 0.1 mm 1 m/s 667 mmHg 93%
    01:00 +8°C° 0.1 mm 1 m/s 667 mmHg 94%
    02:00 +8°C° 0.1 mm 1 m/s 666 mmHg 94%
    03:00 +8°C° 0.1 mm 1 m/s 666 mmHg 94%
    04:00 +7°C° 0.1 mm 1 m/s 666 mmHg 94%
    05:00 +9°C° 0 mm 1 m/s 666 mmHg 92%
    06:00 +10°C° 0 mm 1 m/s 666 mmHg 91%
    07:00 +10°C° 0 mm 0 m/s 666 mmHg 89%
    08:00 +11°C° 0.4 mm 0 m/s 667 mmHg 88%
    09:00 +11°C° 0.4 mm 0 m/s 667 mmHg 88%
    10:00 +12°C° 0.4 mm 0 m/s 667 mmHg 87%
    11:00 +13°C° 1.1 mm 1 m/s 667 mmHg 87%
    12:00 +13°C° 1.1 mm 1 m/s 667 mmHg 88%
    13:00 +13°C° 1.1 mm 1 m/s 667 mmHg 88%
    14:00 +13°C° 1.4 mm 1 m/s 667 mmHg 90%
    15:00 +12°C° 1.4 mm 1 m/s 667 mmHg 91%
    16:00 +12°C° 1.4 mm 1 m/s 667 mmHg 93%
    17:00 +11°C° 1.1 mm 1 m/s 667 mmHg 94%
    18:00 +11°C° 1.1 mm 1 m/s 667 mmHg 96%
    19:00 +10°C° 1.1 mm 1 m/s 667 mmHg 97%
    20:00 +10°C° 1.5 mm 1 m/s 668 mmHg 97%
    21:00 +9°C° 1.5 mm 1 m/s 668 mmHg 97%
    22:00 +9°C° 1.5 mm 1 m/s 668 mmHg 97%
    23:00 +9°C° 2.2 mm 1 m/s 668 mmHg 97%

    Mâine, 21 Mai, Marţi

    Timp Temperatura Precipitaţii Vânt Presiune Umiditate
    00:00 +8°C° 2.2 mm 1 m/s 668 mmHg 97%
    01:00 +8°C° 2.2 mm 1 m/s 668 mmHg 97%
    02:00 +8°C° 2.7 mm 1 m/s 668 mmHg 97%
    03:00 +8°C° 2.7 mm 1 m/s 668 mmHg 97%
    04:00 +8°C° 2.7 mm 1 m/s 669 mmHg 97%
    05:00 +8°C° 2.7 mm 1 m/s 669 mmHg 96%
    06:00 +8°C° 2.7 mm 1 m/s 669 mmHg 96%
    07:00 +8°C° 2.7 mm 1 m/s 669 mmHg 96%
    08:00 +8°C° 1.1 mm 1 m/s 670 mmHg 96%
    09:00 +9°C° 1.1 mm 1 m/s 670 mmHg 95%
    10:00 +8°C° 1.1 mm 2 m/s 671 mmHg 94%
    11:00 +9°C° 1 mm 2 m/s 671 mmHg 92%
    12:00 +9°C° 1 mm 2 m/s 671 mmHg 90%
    13:00 +9°C° 1 mm 2 m/s 672 mmHg 88%
    14:00 +10°C° 0.8 mm 1 m/s 672 mmHg 89%
    15:00 +10°C° 0.8 mm 1 m/s 672 mmHg 90%
    16:00 +10°C° 0.8 mm 1 m/s 672 mmHg 91%
    17:00 +10°C° 0.6 mm 1 m/s 673 mmHg 92%
    18:00 +9°C° 0.6 mm 1 m/s 673 mmHg 94%
    19:00 +9°C° 0.6 mm 1 m/s 673 mmHg 95%
    20:00 +9°C° 1 mm 1 m/s 673 mmHg 95%
    21:00 +8°C° 1 mm 1 m/s 674 mmHg 96%
    22:00 +8°C° 1 mm 1 m/s 674 mmHg 96%
    23:00 +8°C° 0.8 mm 1 m/s 674 mmHg 95%

    Poimâine, 22 Mai, Miercuri

    Timp Temperatura Precipitaţii Vânt Presiune Umiditate
    00:00 +8°C° 0.8 mm 1 m/s 674 mmHg 95%
    01:00 +8°C° 0.8 mm 1 m/s 674 mmHg 95%
    02:00 +8°C° 0.3 mm 1 m/s 674 mmHg 95%
    03:00 +8°C° 0.3 mm 1 m/s 674 mmHg 95%
    04:00 +8°C° 0.3 mm 1 m/s 674 mmHg 95%
    05:00 +8°C° 0.5 mm 1 m/s 674 mmHg 95%
    06:00 +9°C° 0.5 mm 1 m/s 675 mmHg 95%
    07:00 +9°C° 0.5 mm 1 m/s 675 mmHg 95%
    08:00 +10°C° 0.9 mm 1 m/s 675 mmHg 94%
    09:00 +10°C° 0.9 mm 1 m/s 675 mmHg 93%
    10:00 +11°C° 0.9 mm 1 m/s 676 mmHg 92%
    11:00 +10°C° 0.8 mm 1 m/s 676 mmHg 93%
    12:00 +10°C° 0.8 mm 1 m/s 676 mmHg 94%
    13:00 +10°C° 0.8 mm 1 m/s 676 mmHg 96%
    14:00 +11°C° 0.1 mm 1 m/s 676 mmHg 90%
    15:00 +12°C° 0.1 mm 1 m/s 677 mmHg 85%
    16:00 +13°C° 0.1 mm 1 m/s 677 mmHg 80%
    17:00 +12°C° 0.1 mm 1 m/s 677 mmHg 85%
    18:00 +11°C° 0.1 mm 1 m/s 677 mmHg 90%
    19:00 +10°C° 0.1 mm 1 m/s 677 mmHg 96%
    20:00 +9°C° 0 mm 1 m/s 677 mmHg 96%
    21:00 +8°C° 0 mm 1 m/s 678 mmHg 97%
    22:00 +8°C° 0 mm 1 m/s 678 mmHg 97%
    23:00 +7°C° 0 mm 1 m/s 678 mmHg 97%

    23 Mai, Joi

    Timp Temperatura Precipitaţii Vânt Presiune Umiditate
    00:00 +7°C° 0 mm 1 m/s 678 mmHg 97%
    01:00 +7°C° 0 mm 1 m/s 678 mmHg 97%
    02:00 +7°C° 0 mm 1 m/s 678 mmHg 97%
    03:00 +6°C° 0 mm 1 m/s 678 mmHg 97%
    04:00 +6°C° 0 mm 1 m/s 678 mmHg 97%
    05:00 +7°C° 0 mm 1 m/s 678 mmHg 92%
    06:00 +8°C° 0 mm 0 m/s 678 mmHg 88%
    07:00 +9°C° 0 mm 0 m/s 679 mmHg 84%
    08:00 +12°C° 0 mm 1 m/s 679 mmHg 73%
    09:00 +14°C° 0 mm 1 m/s 679 mmHg 62%
    10:00 +16°C° 0 mm 1 m/s 679 mmHg 51%
    11:00 +18°C° 0 mm 1 m/s 679 mmHg 47%
    12:00 +19°C° 0 mm 1 m/s 679 mmHg 44%
    13:00 +20°C° 0 mm 1 m/s 679 mmHg 41%
    14:00 +18°C° 0 mm 2 m/s 679 mmHg 43%
    15:00 +18°C° 0 mm 2 m/s 678 mmHg 45%
    16:00 +18°C° 0 mm 2 m/s 678 mmHg 48%
    17:00 +16°C° 0 mm 2 m/s 677 mmHg 59%
    18:00 +14°C° 0 mm 1 m/s 677 mmHg 70%
    19:00 +12°C° 0 mm 1 m/s 677 mmHg 81%
    20:00 +11°C° 0 mm 1 m/s 677 mmHg 85%
    21:00 +9°C° 0 mm 1 m/s 677 mmHg 90%
    22:00 +8°C° 0 mm 1 m/s 677 mmHg 94%
    23:00 +8°C° 0 mm 1 m/s 676 mmHg 92%

    24 Mai, Vineri

    Timp Temperatura Precipitaţii Vânt Presiune Umiditate
    00:00 +8°C° 0 mm 1 m/s 676 mmHg 90%
    01:00 +7°C° 0 mm 2 m/s 676 mmHg 87%
    02:00 +6°C° 0 mm 2 m/s 676 mmHg 85%
    03:00 +6°C° 0 mm 2 m/s 675 mmHg 82%
    04:00 +6°C° 0 mm 2 m/s 675 mmHg 79%
    05:00 +9°C° 0 mm 1 m/s 675 mmHg 72%
    06:00 +11°C° 0 mm 1 m/s 675 mmHg 66%
    07:00 +14°C° 0 mm 1 m/s 676 mmHg 59%
    08:00 +15°C° 0 mm 0 m/s 676 mmHg 53%
    09:00 +17°C° 0 mm 0 m/s 676 mmHg 46%
    10:00 +19°C° 0 mm 0 m/s 676 mmHg 40%
    11:00 +22°C° 0 mm 1 m/s 675 mmHg 39%
    12:00 +22°C° 0 mm 1 m/s 674 mmHg 37%
    13:00 +22°C° 0 mm 1 m/s 674 mmHg 35%
    14:00 +21°C° 0 mm 2 m/s 673 mmHg 39%
    15:00 +20°C° 0 mm 2 m/s 673 mmHg 42%
    16:00 +20°C° 0 mm 2 m/s 672 mmHg 45%
    17:00 +17°C° 0.6 mm 2 m/s 672 mmHg 61%
    18:00 +15°C° 0.6 mm 1 m/s 671 mmHg 76%
    19:00 +13°C° 0.6 mm 1 m/s 670 mmHg 91%
    20:00 +13°C° 1.1 mm 1 m/s 670 mmHg 93%
    21:00 +12°C° 1.1 mm 1 m/s 670 mmHg 95%
    22:00 +11°C° 1.1 mm 1 m/s 670 mmHg 97%
    23:00 +11°C° 1.2 mm 1 m/s 670 mmHg 97%

    25 Mai, Sâmbătă

    Timp Temperatura Precipitaţii Vânt Presiune Umiditate
    00:00 +11°C° 1.2 mm 1 m/s 670 mmHg 98%
    01:00 +11°C° 1.2 mm 1 m/s 670 mmHg 98%
    02:00 +11°C° 1.2 mm 1 m/s 670 mmHg 98%
    03:00 +10°C° 1.2 mm 1 m/s 670 mmHg 98%
    04:00 +10°C° 1.2 mm 1 m/s 670 mmHg 98%
    05:00 +10°C° 0.6 mm 1 m/s 670 mmHg 98%
    06:00 +10°C° 0.6 mm 1 m/s 670 mmHg 97%
    07:00 +10°C° 0.6 mm 1 m/s 670 mmHg 97%
    08:00 +10°C° 0.3 mm 1 m/s 671 mmHg 96%
    09:00 +10°C° 0.3 mm 1 m/s 671 mmHg 95%
    10:00 +11°C° 0.3 mm 1 m/s 671 mmHg 94%
    11:00 +11°C° 0.2 mm 1 m/s 671 mmHg 92%
    12:00 +12°C° 0.2 mm 1 m/s 671 mmHg 90%
    13:00 +12°C° 0.2 mm 2 m/s 672 mmHg 88%
    14:00 +12°C° 0.2 mm 2 m/s 672 mmHg 87%
    15:00 +12°C° 0.2 mm 2 m/s 672 mmHg 86%
    16:00 +13°C° 0.2 mm 2 m/s 672 mmHg 85%
    17:00 +12°C° 0.2 mm 1 m/s 672 mmHg 88%
    18:00 +11°C° 0.2 mm 1 m/s 673 mmHg 91%
    19:00 +11°C° 0.2 mm 1 m/s 673 mmHg 94%
    20:00 +10°C° 0.2 mm 1 m/s 673 mmHg 96%
    21:00 +9°C° 0.2 mm 1 m/s 673 mmHg 97%
    22:00 +8°C° 0.2 mm 1 m/s 674 mmHg 98%
    23:00 +9°C° 0.2 mm 1 m/s 674 mmHg 98%
    Arată mai mult